| time (UTC) | temp C | wind direction | speed KPH | gust KPH | rain 1hr cm | rain 24hr cm | rain mn cm | humidity % | barometer mb |
| 20260507050657 | 7 | 0.0 | 0.0 | 0.00 | 0.74 | 0.00 | 95 | 1012.0 | |
| 20260507045616 | 7 | 292 | 3.2 | 4.8 | 0.00 | 0.74 | 0.00 | 95 | 1012.0 |
| 20260507044616 | 7 | 0 | 1.6 | 3.2 | 0.00 | 0.74 | 0.00 | 95 | 1011.9 |
| 20260507043657 | 7 | 0.0 | 0.0 | 0.00 | 0.74 | 0.00 | 95 | 1011.8 | |
| 20260507042616 | 7 | 0.0 | 0.0 | 0.00 | 0.74 | 0.00 | 95 | 1011.9 | |
| 20260507041616 | 7 | 0.0 | 0.0 | 0.00 | 0.74 | 0.00 | 95 | 1011.7 | |
| 20260507040656 | 7 | 0.0 | 0.0 | 0.00 | 0.74 | 0.00 | 95 | 1011.4 | |
| 20260507035717 | 7 | 0.0 | 0.0 | 0.00 | 0.74 | 0.71 | 95 | 1011.5 | |
| 20260507034716 | 7 | 0.0 | 0.0 | 0.00 | 0.74 | 0.71 | 95 | 1011.3 | |
| 20260507033716 | 7 | 0.0 | 0.0 | 0.00 | 0.74 | 0.71 | 95 | 1011.2 | |
| 20260507032657 | 7 | 0.0 | 0.0 | 0.00 | 0.74 | 0.71 | 95 | 1011.3 | |
| 20260507031616 | 7 | 0.0 | 0.0 | 0.00 | 0.74 | 0.71 | 95 | 1011.8 | |
| 20260507030656 | 7 | 0.0 | 0.0 | 0.00 | 0.74 | 0.71 | 95 | 1011.7 | |
| 20260507025637 | 7 | 0.0 | 0.0 | 0.00 | 0.74 | 0.71 | 95 | 1011.6 | |
| 20260507024616 | 7 | 0.0 | 0.0 | 0.00 | 0.74 | 0.71 | 94 | 1012.0 | |
| 20260507023636 | 7 | 0.0 | 0.0 | 0.00 | 0.74 | 0.71 | 94 | 1011.8 | |
| 20260507022617 | 7 | 0.0 | 0.0 | 0.00 | 0.74 | 0.71 | 94 | 1011.6 | |
| 20260507021656 | 7 | 0.0 | 0.0 | 0.00 | 0.74 | 0.71 | 94 | 1012.0 | |
| 20260507020616 | 7 | 0.0 | 0.0 | 0.00 | 0.74 | 0.71 | 94 | 1011.8 | |
| 20260507015617 | 7 | 0.0 | 0.0 | 0.00 | 0.74 | 0.71 | 94 | 1011.9 | |
| 20260507014616 | 7 | 0.0 | 0.0 | 0.00 | 0.74 | 0.71 | 94 | 1012.0 | |
| 20260507013636 | 7 | 0.0 | 0.0 | 0.00 | 0.74 | 0.71 | 93 | 1011.9 | |
| 20260507012616 | 7 | 0.0 | 0.0 | 0.00 | 0.74 | 0.71 | 93 | 1011.8 | |
| 20260507011616 | 7 | 0.0 | 0.0 | 0.00 | 0.74 | 0.71 | 93 | 1011.9 | |
| 20260507010657 | 7 | 0.0 | 0.0 | 0.00 | 0.74 | 0.71 | 93 | 1011.8 | |
| 20260507005616 | 7 | 0.0 | 0.0 | 0.00 | 0.74 | 0.71 | 93 | 1011.5 | |
| 20260507004616 | 7 | 0.0 | 0.0 | 0.00 | 0.74 | 0.71 | 92 | 1011.4 | |
| 20260507003616 | 7 | 0.0 | 0.0 | 0.00 | 0.74 | 0.71 | 92 | 1011.5 | |
| 20260507002737 | 7 | 0.0 | 0.0 | 0.00 | 0.74 | 0.71 | 92 | 1011.3 | |
| 20260507001700 | 7 | 0.0 | 0.0 | 0.00 | 0.74 | 0.71 | 91 | 1011.3 | |
| 20260507000656 | 7 | 0.0 | 0.0 | 0.00 | 0.74 | 0.71 | 91 | 1011.2 | |
| 20260506235616 | 7 | 0.0 | 0.0 | 0.00 | 0.74 | 0.71 | 91 | 1011.0 | |
| 20260506234656 | 7 | 0.0 | 0.0 | 0.00 | 0.74 | 0.71 | 91 | 1011.0 | |
| 20260506233616 | 8 | 0.0 | 0.0 | 0.00 | 0.74 | 0.71 | 91 | 1010.8 | |
| 20260506232615 | 7 | 0.0 | 0.0 | 0.00 | 0.74 | 0.71 | 90 | 1010.8 | |
| 20260506231717 | 7 | 0.0 | 4.8 | 0.00 | 0.74 | 0.71 | 91 | 1010.8 | |
| 20260506230636 | 8 | 0.0 | 0.0 | 0.00 | 0.74 | 0.71 | 91 | 1010.8 | |
| 20260506225636 | 7 | 0.0 | 0.0 | 0.00 | 0.74 | 0.71 | 91 | 1010.3 | |
| 20260506224636 | 8 | 270 | 1.6 | 4.8 | 0.00 | 0.74 | 0.71 | 91 | 1010.5 |
| 20260506223636 | 8 | 292 | 6.4 | 11.3 | 0.00 | 0.74 | 0.71 | 91 | 1010.4 |
| 20260506222636 | 8 | 292 | 1.6 | 3.2 | 0.00 | 0.74 | 0.71 | 91 | 1010.2 |
| 20260506221656 | 8 | 292 | 1.6 | 4.8 | 0.00 | 0.76 | 0.71 | 91 | 1010.1 |
| 20260506215616 | 8 | 292 | 3.2 | 6.4 | 0.00 | 0.76 | 0.71 | 92 | 1010.1 |
| 20260506214615 | 8 | 270 | 3.2 | 6.4 | 0.00 | 0.76 | 0.71 | 92 | 1010.2 |
| 20260506213615 | 8 | 0.0 | 1.6 | 0.00 | 0.76 | 0.71 | 92 | 1010.1 | |
| 20260506212635 | 8 | 270 | 6.4 | 11.3 | 0.00 | 0.76 | 0.71 | 92 | 1009.9 |
| 20260506211656 | 8 | 0.0 | 3.2 | 0.00 | 0.76 | 0.71 | 93 | 1009.7 | |
| 20260506210716 | 8 | 270 | 11.3 | 20.9 | 0.00 | 0.76 | 0.71 | 93 | 1009.6 |
| 20260506204656 | 8 | 337 | 3.2 | 8.0 | 0.00 | 0.76 | 0.71 | 93 | 1009.2 |
| 20260506203635 | 8 | 292 | 9.7 | 14.5 | 0.00 | 0.76 | 0.71 | 93 | 1008.9 |
| 20260506202656 | 8 | 0 | 3.2 | 11.3 | 0.03 | 0.76 | 0.71 | 94 | 1008.8 |
| 20260506201638 | 8 | 292 | 3.2 | 9.7 | 0.03 | 0.76 | 0.71 | 94 | 1008.7 |
| 20260506200615 | 8 | 0.0 | 1.6 | 0.03 | 0.76 | 0.71 | 94 | 1008.3 | |
| 20260506195635 | 8 | 0.0 | 1.6 | 0.05 | 0.76 | 0.71 | 94 | 1008.2 | |
| 20260506194615 | 8 | 0.0 | 1.6 | 0.05 | 0.76 | 0.71 | 94 | 1008.2 | |
| 20260506193615 | 8 | 0 | 1.6 | 6.4 | 0.05 | 0.81 | 0.71 | 94 | 1008.2 |
| 20260506192615 | 8 | 0.0 | 4.8 | 0.03 | 0.91 | 0.71 | 94 | 1008.2 | |
| 20260506191711 | 8 | 0 | 4.8 | 6.4 | 0.03 | 0.94 | 0.71 | 94 | 1008.2 |
| 20260506191315 | 8 | 0.0 | 1.6 | 0.03 | 0.94 | 0.71 | 94 | 1008.1 | |
| 20260506190315 | 8 | 315 | 4.8 | 6.4 | 0.03 | 0.94 | 0.71 | 94 | 1008.1 |
| 20260506185319 | 9 | 292 | 1.6 | 3.2 | 0.00 | 0.91 | 0.69 | 94 | 1007.8 |
| 20260506184315 | 9 | 0.0 | 1.6 | 0.00 | 0.91 | 0.69 | 95 | 1007.4 | |
| 20260506183316 | 9 | 0.0 | 1.6 | 0.03 | 0.91 | 0.69 | 95 | 1007.3 | |
| 20260506182315 | 9 | 270 | 1.6 | 4.8 | 0.03 | 0.91 | 0.69 | 95 | 1007.2 |
| 20260506181315 | 8 | 0.0 | 0.0 | 0.03 | 0.91 | 0.69 | 95 | 1007.3 | |
| 20260506180316 | 9 | 0.0 | 0.0 | 0.03 | 0.91 | 0.69 | 95 | 1007.3 | |
| 20260506175315 | 9 | 270 | 1.6 | 3.2 | 0.03 | 0.91 | 0.69 | 95 | 1007.2 |
| 20260506174415 | 9 | 292 | 1.6 | 6.4 | 0.03 | 0.91 | 0.69 | 95 | 1007.0 |
| 20260506173436 | 9 | 292 | 1.6 | 3.2 | 0.00 | 0.89 | 0.66 | 95 | 1006.7 |
| 20260506172335 | 9 | 247 | 1.6 | 4.8 | 0.03 | 0.89 | 0.66 | 95 | 1006.7 |
| 20260506171315 | 9 | 292 | 1.6 | 4.8 | 0.03 | 0.89 | 0.66 | 95 | 1006.7 |
| 20260506170335 | 9 | 0.0 | 1.6 | 0.03 | 0.89 | 0.66 | 95 | 1006.7 | |
| 20260506165336 | 9 | 292 | 3.2 | 4.8 | 0.03 | 0.89 | 0.66 | 95 | 1006.6 |
| 20260506164315 | 9 | 0.0 | 0.0 | 0.05 | 0.89 | 0.66 | 95 | 1006.6 | |
| 20260506163315 | 9 | 292 | 1.6 | 6.4 | 0.08 | 0.89 | 0.66 | 95 | 1006.7 |
| 20260506162315 | 9 | 0.0 | 1.6 | 0.05 | 0.86 | 0.64 | 95 | 1006.4 | |
| 20260506161315 | 10 | 0.0 | 1.6 | 0.05 | 0.86 | 0.64 | 95 | 1006.4 | |
| 20260506160335 | 11 | 315 | 1.6 | 3.2 | 0.05 | 0.86 | 0.64 | 95 | 1006.3 |
| 20260506155416 | 11 | 0.0 | 1.6 | 0.05 | 0.86 | 0.64 | 95 | 1006.1 | |
| 20260506154315 | 11 | 22 | 1.6 | 6.4 | 0.03 | 0.84 | 0.61 | 95 | 1006.3 |
| 20260506153355 | 12 | 270 | 3.2 | 9.7 | 0.03 | 0.81 | 0.58 | 95 | 1006.4 |
| 20260506152315 | 13 | 270 | 1.6 | 3.2 | 0.03 | 0.81 | 0.58 | 96 | 1006.3 |
| 20260506151415 | 13 | 0.0 | 1.6 | 0.05 | 0.81 | 0.58 | 96 | 1006.2 | |
| 20260506150316 | 13 | 0.0 | 1.6 | 0.05 | 0.81 | 0.58 | 96 | 1006.1 | |
| 20260506145315 | 13 | 0.0 | 1.6 | 0.05 | 0.81 | 0.58 | 96 | 1006.1 | |
| 20260506144315 | 13 | 247 | 1.6 | 3.2 | 0.05 | 0.81 | 0.58 | 96 | 1006.0 |
| 20260506143315 | 13 | 0.0 | 0.0 | 0.05 | 0.79 | 0.56 | 96 | 1005.7 | |
| 20260506142355 | 12 | 0.0 | 0.0 | 0.08 | 0.79 | 0.56 | 96 | 1006.0 | |
| 20260506141355 | 12 | 0.0 | 1.6 | 0.08 | 0.76 | 0.53 | 96 | 1006.0 | |
| 20260506140335 | 12 | 0.0 | 0.0 | 0.13 | 0.76 | 0.53 | 96 | 1006.0 | |
| 20260506135356 | 12 | 0.0 | 0.0 | 0.15 | 0.76 | 0.53 | 96 | 1006.1 | |
| 20260506134335 | 11 | 0.0 | 0.0 | 0.20 | 0.76 | 0.53 | 96 | 1006.3 | |
| 20260506133317 | 11 | 0.0 | 1.6 | 0.23 | 0.74 | 0.51 | 96 | 1006.4 | |
| 20260506132438 | 11 | 0.0 | 0.0 | 0.25 | 0.71 | 0.48 | 95 | 1006.5 | |
| 20260506131337 | 11 | 0.0 | 0.0 | 0.25 | 0.69 | 0.46 | 96 | 1006.8 | |
| 20260506130337 | 11 | 0.0 | 0.0 | 0.20 | 0.64 | 0.41 | 96 | 1006.8 | |
| 20260506125317 | 11 | 0.0 | 0.0 | 0.18 | 0.61 | 0.38 | 96 | 1006.9 | |
| 20260506124418 | 11 | 0.0 | 1.6 | 0.15 | 0.56 | 0.33 | 95 | 1007.0 | |
| 20260506123316 | 11 | 0.0 | 0.0 | 0.10 | 0.51 | 0.28 | 95 | 1006.7 | |
| 20260506122317 | 11 | 0.0 | 0.0 | 0.08 | 0.46 | 0.23 | 95 | 1006.5 | |
| 20260506121337 | 11 | 0.0 | 0.0 | 0.10 | 0.43 | 0.20 | 95 | 1006.6 | |
| 20260506120357 | 10 | 0.0 | 0.0 | 0.13 | 0.43 | 0.20 | 95 | 1006.5 | |
| 20260506115316 | 10 | 0.0 | 0.0 | 0.15 | 0.43 | 0.20 | 95 | 1006.5 | |
| 20260506114337 | 10 | 0.0 | 1.6 | 0.13 | 0.41 | 0.18 | 95 | 1006.7 | |
| 20260506113356 | 10 | 0.0 | 0.0 | 0.13 | 0.41 | 0.18 | 95 | 1006.8 | |
| 20260506112316 | 10 | 0.0 | 0.0 | 0.10 | 0.38 | 0.15 | 95 | 1007.1 | |
| 20260506111337 | 10 | 0.0 | 0.0 | 0.05 | 0.30 | 0.10 | 95 | 1007.2 | |
| 20260506110337 | 10 | 0.0 | 0.0 | 0.03 | 0.28 | 0.08 | 95 | 1007.2 | |
| 20260506105316 | 10 | 0.0 | 0.0 | 0.03 | 0.25 | 0.05 | 95 | 1007.1 | |
| 20260506104316 | 10 | 0.0 | 0.0 | 0.03 | 0.25 | 0.05 | 95 | 1006.9 | |
| 20260506103316 | 10 | 0.0 | 0.0 | 0.03 | 0.25 | 0.05 | 95 | 1007.0 | |
| 20260506102336 | 10 | 0.0 | 0.0 | 0.03 | 0.25 | 0.05 | 95 | 1007.2 | |
| 20260506101316 | 10 | 0.0 | 0.0 | 0.05 | 0.25 | 0.05 | 94 | 1007.1 | |
| 20260506100337 | 10 | 0.0 | 0.0 | 0.05 | 0.25 | 0.05 | 94 | 1007.0 | |
| 20260506095417 | 10 | 0.0 | 0.0 | 0.03 | 0.25 | 0.03 | 94 | 1006.8 | |
| 20260506094316 | 10 | 0.0 | 0.0 | 0.03 | 0.25 | 0.03 | 94 | 1006.9 | |
| 20260506093336 | 10 | 0.0 | 0.0 | 0.03 | 0.25 | 0.03 | 94 | 1007.0 | |
| 20260506092336 | 10 | 0.0 | 0.0 | 0.03 | 0.25 | 0.03 | 94 | 1007.0 | |
| 20260506091316 | 10 | 0.0 | 0.0 | 0.00 | 0.23 | 0.00 | 94 | 1007.0 | |
| 20260506090417 | 10 | 0.0 | 0.0 | 0.00 | 0.23 | 0.00 | 94 | 1006.8 | |
| 20260506085337 | 10 | 0.0 | 0.0 | 0.00 | 0.23 | 0.00 | 94 | 1007.0 | |
| 20260506084316 | 10 | 0.0 | 0.0 | 0.00 | 0.23 | 0.00 | 94 | 1007.2 | |
| 20260506083316 | 10 | 0.0 | 0.0 | 0.00 | 0.23 | 0.00 | 94 | 1007.3 | |
| 20260506082336 | 10 | 0.0 | 0.0 | 0.00 | 0.23 | 0.00 | 94 | 1007.4 | |
| 20260506081316 | 10 | 0.0 | 0.0 | 0.00 | 0.23 | 0.00 | 94 | 1007.4 | |
| 20260506080337 | 10 | 0.0 | 0.0 | 0.00 | 0.23 | 0.00 | 94 | 1007.2 | |
| 20260506073337 | 10 | 67 | 1.6 | 3.2 | 0.00 | 0.23 | 0.00 | 94 | 1007.2 |
| 20260506072316 | 10 | 0.0 | 0.0 | 0.00 | 0.23 | 0.00 | 95 | 1008.1 | |
| 20260506071436 | 10 | 0.0 | 0.0 | 0.00 | 0.23 | 0.00 | 94 | 1008.0 | |
| 20260506070316 | 10 | 0.0 | 0.0 | 0.00 | 0.23 | 0.00 | 94 | 1007.9 | |
| 20260506062316 | 10 | 0.0 | 1.6 | 0.00 | 0.23 | 0.00 | 94 | 1008.5 | |
| 20260506061416 | 10 | 0.0 | 0.0 | 0.00 | 0.23 | 0.00 | 94 | 1008.4 | |
| 20260506060317 | 10 | 0.0 | 0.0 | 0.00 | 0.23 | 0.00 | 94 | 1008.5 | |
| 20260506051316 | 10 | 0.0 | 0.0 | 0.00 | 0.23 | 0.00 | 94 | 1009.2 |